Time,TemperatureF,DewpointF,PressureIn,WindDirection,WindDirectionDegrees,WindSpeedMPH,WindSpeedGustMPH,Humidity,HourlyPrecipIn,Conditions,Clouds,dailyrainin,SolarRadiationWatts/m^2,SoftwareType,DateUTC
2013-08-06 00:06:00,50.4,48.0,29.71,SW,234,0.0,0.0,91,0.00,,,0.03,0,weatherlink.com 1.10,2013-08-06 04:06:00,
2013-08-06 00:21:00,50.0,48.0,29.72,SW,234,0.0,0.0,92,0.00,,,0.03,0,weatherlink.com 1.10,2013-08-06 04:21:00,
2013-08-06 00:36:00,49.7,48.0,29.72,SW,234,0.0,1.0,92,0.00,,,0.03,0,weatherlink.com 1.10,2013-08-06 04:36:00,
2013-08-06 00:51:00,49.6,48.0,29.71,WSW,249,0.0,3.0,93,0.00,,,0.03,0,weatherlink.com 1.10,2013-08-06 04:51:00,
2013-08-06 01:06:00,49.7,48.0,29.72,WSW,251,0.0,3.0,94,0.00,,,0.03,0,weatherlink.com 1.10,2013-08-06 05:06:00,
2013-08-06 01:21:00,49.6,48.0,29.72,WSW,251,0.0,0.0,94,0.00,,,0.03,0,weatherlink.com 1.10,2013-08-06 05:21:00,
2013-08-06 01:36:00,49.3,48.0,29.71,WSW,251,1.0,2.0,94,0.00,,,0.03,0,weatherlink.com 1.10,2013-08-06 05:36:00,
2013-08-06 01:51:00,49.0,47.0,29.72,WSW,251,0.0,0.0,94,0.00,,,0.03,0,weatherlink.com 1.10,2013-08-06 05:51:00,
2013-08-06 02:06:00,48.8,47.0,29.72,WSW,251,0.0,0.0,94,0.00,,,0.03,0,weatherlink.com 1.10,2013-08-06 06:06:00,
2013-08-06 02:21:00,48.4,47.0,29.72,WSW,251,0.0,0.0,94,0.00,,,0.03,0,weatherlink.com 1.10,2013-08-06 06:21:00,
2013-08-06 02:36:00,48.0,46.0,29.72,WSW,251,0.0,0.0,93,0.00,,,0.03,0,weatherlink.com 1.10,2013-08-06 06:36:00,
2013-08-06 02:51:00,47.7,46.0,29.72,WSW,251,0.0,0.0,93,0.00,,,0.00,0,weatherlink.com 1.10,2013-08-06 06:51:00,
2013-08-06 03:06:00,47.4,46.0,29.73,WSW,251,0.0,0.0,93,0.00,,,0.00,0,weatherlink.com 1.10,2013-08-06 07:06:00,
2013-08-06 03:21:00,47.0,45.0,29.73,WSW,251,0.0,0.0,93,0.00,,,0.00,0,weatherlink.com 1.10,2013-08-06 07:21:00,
2013-08-06 03:36:00,46.8,45.0,29.73,WSW,251,0.0,0.0,94,0.00,,,0.00,0,weatherlink.com 1.10,2013-08-06 07:36:00,
2013-08-06 03:51:00,46.7,45.0,29.73,WSW,251,0.0,0.0,94,0.00,,,0.00,0,weatherlink.com 1.10,2013-08-06 07:51:00,
2013-08-06 04:06:00,46.5,45.0,29.73,WSW,251,0.0,0.0,94,0.00,,,0.00,0,weatherlink.com 1.10,2013-08-06 08:06:00,
2013-08-06 04:21:00,46.3,45.0,29.74,WSW,251,0.0,0.0,94,0.00,,,0.00,0,weatherlink.com 1.10,2013-08-06 08:21:00,
2013-08-06 04:36:00,46.0,44.0,29.74,WSW,251,0.0,0.0,94,0.00,,,0.00,0,weatherlink.com 1.10,2013-08-06 08:36:00,
2013-08-06 04:51:00,45.7,44.0,29.74,WSW,251,0.0,0.0,94,0.00,,,0.00,0,weatherlink.com 1.10,2013-08-06 08:51:00,
2013-08-06 05:06:00,45.4,44.0,29.74,WSW,251,0.0,0.0,94,0.00,,,0.00,0,weatherlink.com 1.10,2013-08-06 09:06:00,
2013-08-06 05:21:00,45.2,44.0,29.75,WSW,251,0.0,0.0,94,0.00,,,0.00,0,weatherlink.com 1.10,2013-08-06 09:21:00,
2013-08-06 05:36:00,45.0,43.0,29.75,WSW,251,0.0,0.0,94,0.00,,,0.00,0,weatherlink.com 1.10,2013-08-06 09:36:00,
2013-08-06 05:51:00,45.2,44.0,29.75,WSW,251,0.0,1.0,95,0.00,,,0.00,7,weatherlink.com 1.10,2013-08-06 09:51:00,
2013-08-06 06:06:00,45.1,44.0,29.76,WSW,251,0.0,0.0,95,0.00,,,0.00,14,weatherlink.com 1.10,2013-08-06 10:06:00,
2013-08-06 06:22:00,45.2,44.0,29.76,WSW,254,0.0,0.0,96,0.00,,,0.00,21,weatherlink.com 1.10,2013-08-06 10:22:00,
2013-08-06 06:37:00,45.4,44.0,29.77,WSW,254,0.0,0.0,96,0.00,,,0.00,19,weatherlink.com 1.10,2013-08-06 10:37:00,
2013-08-06 06:52:00,45.9,45.0,29.77,WSW,254,0.0,0.0,96,0.00,,,0.00,23,weatherlink.com 1.10,2013-08-06 10:52:00,
2013-08-06 07:07:00,46.4,45.0,29.77,WSW,254,0.0,0.0,96,0.00,,,0.00,30,weatherlink.com 1.10,2013-08-06 11:07:00,
2013-08-06 07:22:00,47.3,47.0,29.77,WSW,254,0.0,0.0,97,0.00,,,0.00,60,weatherlink.com 1.10,2013-08-06 11:22:00,
2013-08-06 07:37:00,48.9,48.0,29.78,WSW,254,0.0,0.0,97,0.00,,,0.00,39,weatherlink.com 1.10,2013-08-06 11:37:00,
2013-08-06 07:52:00,50.8,50.0,29.78,NNE,19,0.0,2.0,98,0.00,,,0.00,53,weatherlink.com 1.10,2013-08-06 11:52:00,
2013-08-06 08:07:00,52.2,52.0,29.78,NNE,19,0.0,1.0,98,0.00,,,0.00,60,weatherlink.com 1.10,2013-08-06 12:07:00,
2013-08-06 08:22:00,54.4,54.0,29.79,NNE,19,0.0,1.0,98,0.00,,,0.00,134,weatherlink.com 1.10,2013-08-06 12:22:00,
2013-08-06 08:37:00,56.0,56.0,29.79,NNE,19,0.0,1.0,98,0.00,,,0.00,329,weatherlink.com 1.10,2013-08-06 12:37:00,
2013-08-06 08:52:00,58.0,58.0,29.79,NNE,19,0.0,1.0,98,0.00,,,0.00,420,weatherlink.com 1.10,2013-08-06 12:52:00,
2013-08-06 09:07:00,59.1,59.0,29.79,NNE,19,0.0,3.0,98,0.00,,,0.00,494,weatherlink.com 1.10,2013-08-06 13:07:00,
2013-08-06 09:22:00,62.8,58.0,29.79,NNE,30,0.0,2.0,84,0.00,,,0.00,550,weatherlink.com 1.10,2013-08-06 13:22:00,
2013-08-06 09:37:00,66.8,57.0,29.79,NE,39,2.0,3.0,71,0.00,,,0.00,497,weatherlink.com 1.10,2013-08-06 13:37:00,
2013-08-06 09:52:00,70.1,59.0,29.79,South,184,0.0,4.0,67,0.00,,,0.00,643,weatherlink.com 1.10,2013-08-06 13:52:00,
2013-08-06 10:07:00,71.9,54.0,29.79,SW,217,3.0,5.0,54,0.00,,,0.00,673,weatherlink.com 1.10,2013-08-06 14:07:00,
2013-08-06 10:22:00,72.4,55.0,29.79,SW,220,1.0,6.0,54,0.00,,,0.00,715,weatherlink.com 1.10,2013-08-06 14:22:00,
2013-08-06 10:38:00,73.5,55.0,29.79,ESE,120,1.0,3.0,53,0.00,,,0.00,754,weatherlink.com 1.10,2013-08-06 14:38:00,
2013-08-06 10:53:00,74.9,54.0,29.79,East,100,2.0,4.0,49,0.00,,,0.00,805,weatherlink.com 1.10,2013-08-06 14:53:00,
2013-08-06 11:08:00,75.8,57.0,29.79,SE,134,2.0,4.0,52,0.00,,,0.00,817,weatherlink.com 1.10,2013-08-06 15:08:00,
2013-08-06 11:23:00,76.4,55.0,29.79,ESE,109,2.0,5.0,48,0.00,,,0.00,768,weatherlink.com 1.10,2013-08-06 15:23:00,
2013-08-06 11:38:00,76.7,53.0,29.79,SE,136,0.0,5.0,44,0.00,,,0.00,826,weatherlink.com 1.10,2013-08-06 15:38:00,
2013-08-06 11:53:00,76.8,53.0,29.78,North,350,0.0,5.0,44,0.00,,,0.00,773,weatherlink.com 1.10,2013-08-06 15:53:00,
2013-08-06 12:08:00,77.0,57.0,29.78,NNW,337,0.0,6.0,50,0.00,,,0.00,865,weatherlink.com 1.10,2013-08-06 16:08:00,
2013-08-06 12:23:00,77.0,55.0,29.78,WSW,248,1.0,4.0,46,0.00,,,0.00,874,weatherlink.com 1.10,2013-08-06 16:23:00,
2013-08-06 12:38:00,77.3,57.0,29.78,WSW,237,1.0,8.0,49,0.00,,,0.00,886,weatherlink.com 1.10,2013-08-06 16:38:00,
2013-08-06 12:53:00,78.0,54.0,29.79,NE,38,3.0,5.0,43,0.00,,,0.00,893,weatherlink.com 1.10,2013-08-06 16:53:00,
2013-08-06 13:08:00,78.6,55.0,29.78,South,182,2.0,6.0,44,0.00,,,0.00,900,weatherlink.com 1.10,2013-08-06 17:08:00,
2013-08-06 13:23:00,77.7,54.0,29.78,NNE,22,2.0,6.0,44,0.00,,,0.00,176,weatherlink.com 1.10,2013-08-06 17:23:00,
2013-08-06 13:38:00,76.6,55.0,29.78,NNE,12,0.0,3.0,48,0.00,,,0.00,264,weatherlink.com 1.10,2013-08-06 17:38:00,
2013-08-06 13:53:00,78.2,59.0,29.78,WNW,288,1.0,3.0,52,0.00,,,0.00,946,weatherlink.com 1.10,2013-08-06 17:53:00,
2013-08-06 14:08:00,79.8,56.0,29.78,East,98,0.0,3.0,44,0.00,,,0.00,91,weatherlink.com 1.10,2013-08-06 18:08:00,
2013-08-06 14:23:00,79.8,59.0,29.77,SE,130,0.0,6.0,49,0.00,,,0.00,912,weatherlink.com 1.10,2013-08-06 18:23:00,
2013-08-06 14:38:00,80.7,55.0,29.77,SSW,208,0.0,2.0,42,0.00,,,0.00,420,weatherlink.com 1.10,2013-08-06 18:38:00,
2013-08-06 14:53:00,80.3,56.0,29.77,West,269,0.0,3.0,44,0.00,,,0.00,237,weatherlink.com 1.10,2013-08-06 18:53:00,
2013-08-06 15:08:00,79.8,56.0,29.77,South,189,0.0,4.0,44,0.00,,,0.00,301,weatherlink.com 1.10,2013-08-06 19:08:00,
2013-08-06 15:23:00,79.7,57.0,29.77,SSE,154,0.0,6.0,46,0.00,,,0.00,276,weatherlink.com 1.10,2013-08-06 19:23:00,
2013-08-06 15:38:00,79.3,58.0,29.77,SW,230,1.0,3.0,48,0.00,,,0.00,559,weatherlink.com 1.10,2013-08-06 19:38:00,
2013-08-06 15:53:00,79.8,56.0,29.77,West,263,2.0,4.0,44,0.00,,,0.00,258,weatherlink.com 1.10,2013-08-06 19:53:00,
2013-08-06 16:08:00,79.8,58.0,29.77,WSW,243,2.0,4.0,47,0.00,,,0.00,696,weatherlink.com 1.10,2013-08-06 20:08:00,
2013-08-06 16:23:00,80.4,56.0,29.77,SE,125,2.0,4.0,43,0.00,,,0.00,113,weatherlink.com 1.10,2013-08-06 20:23:00,
2013-08-06 16:38:00,79.7,56.0,29.77,SE,126,0.0,2.0,45,0.00,,,0.00,123,weatherlink.com 1.10,2013-08-06 20:38:00,
2013-08-06 16:53:00,78.0,61.0,29.77,SW,223,0.0,1.0,57,0.00,,,0.00,98,weatherlink.com 1.10,2013-08-06 20:53:00,
2013-08-06 17:23:00,78.5,58.0,29.76,SE,128,0.0,4.0,49,0.00,,,0.00,443,weatherlink.com 1.10,2013-08-06 21:23:00,
2013-08-06 17:38:00,79.6,57.0,29.77,ESE,121,0.0,4.0,46,0.00,,,0.00,397,weatherlink.com 1.10,2013-08-06 21:38:00,
2013-08-06 17:53:00,80.2,56.0,29.76,South,174,0.0,3.0,43,0.00,,,0.00,345,weatherlink.com 1.10,2013-08-06 21:53:00,
2013-08-06 18:08:00,80.3,56.0,29.77,SW,229,0.0,5.0,44,0.00,,,0.00,225,weatherlink.com 1.10,2013-08-06 22:08:00,
2013-08-06 18:23:00,79.3,58.0,29.77,WSW,241,0.0,2.0,49,0.00,,,0.00,137,weatherlink.com 1.10,2013-08-06 22:23:00,
2013-08-06 18:38:00,78.4,61.0,29.77,WSW,239,0.0,1.0,56,0.00,,,0.00,174,weatherlink.com 1.10,2013-08-06 22:38:00,
2013-08-06 18:53:00,76.2,61.0,29.77,WSW,238,0.0,0.0,60,0.00,,,0.00,70,weatherlink.com 1.10,2013-08-06 22:53:00,
2013-08-06 19:08:00,73.7,61.0,29.77,WSW,238,0.0,0.0,65,0.00,,,0.00,79,weatherlink.com 1.10,2013-08-06 23:08:00,
2013-08-06 19:23:00,72.7,61.0,29.78,WSW,239,0.0,2.0,66,0.00,,,0.00,37,weatherlink.com 1.10,2013-08-06 23:23:00,
2013-08-06 19:38:00,71.1,60.0,29.78,SSE,150,0.0,1.0,68,0.00,,,0.00,16,weatherlink.com 1.10,2013-08-06 23:38:00,
2013-08-06 19:53:00,69.5,61.0,29.79,SSE,150,0.0,1.0,73,0.00,,,0.00,5,weatherlink.com 1.10,2013-08-06 23:53:00,
2013-08-06 20:08:00,67.8,60.0,29.79,SSE,150,0.0,1.0,76,0.00,,,0.00,0,weatherlink.com 1.10,2013-08-07 00:08:00,
2013-08-06 20:23:00,65.9,59.0,29.79,SSE,150,0.0,0.0,79,0.00,,,0.00,0,weatherlink.com 1.10,2013-08-07 00:23:00,
2013-08-06 20:38:00,64.6,59.0,29.80,SSW,194,0.0,2.0,81,0.00,,,0.00,0,weatherlink.com 1.10,2013-08-07 00:38:00,
2013-08-06 20:53:00,63.4,59.0,29.80,SSW,194,0.0,2.0,84,0.00,,,0.00,0,weatherlink.com 1.10,2013-08-07 00:53:00,
2013-08-06 21:08:00,62.3,57.0,29.80,SSW,194,0.0,0.0,84,0.00,,,0.00,0,weatherlink.com 1.10,2013-08-07 01:08:00,
2013-08-06 21:23:00,61.0,57.0,29.80,SSW,194,0.0,0.0,86,0.00,,,0.00,0,weatherlink.com 1.10,2013-08-07 01:23:00,
2013-08-06 21:38:00,60.1,56.0,29.80,SSW,194,0.0,0.0,87,0.00,,,0.00,0,weatherlink.com 1.10,2013-08-07 01:38:00,
2013-08-06 21:53:00,59.3,56.0,29.80,SSW,194,0.0,0.0,88,0.00,,,0.00,0,weatherlink.com 1.10,2013-08-07 01:53:00,
2013-08-06 22:08:00,58.7,56.0,29.80,SSW,194,0.0,0.0,89,0.00,,,0.00,0,weatherlink.com 1.10,2013-08-07 02:08:00,
2013-08-06 22:23:00,58.1,55.0,29.80,SSW,194,0.0,0.0,90,0.00,,,0.00,0,weatherlink.com 1.10,2013-08-07 02:23:00,
2013-08-06 22:38:00,57.7,55.0,29.80,SSW,194,0.0,0.0,91,0.00,,,0.00,0,weatherlink.com 1.10,2013-08-07 02:38:00,
2013-08-06 22:53:00,57.2,55.0,29.80,SSW,194,0.0,0.0,91,0.00,,,0.00,0,weatherlink.com 1.10,2013-08-07 02:53:00,
2013-08-06 23:08:00,56.8,54.0,29.80,SSW,194,0.0,1.0,91,0.00,,,0.00,0,weatherlink.com 1.10,2013-08-07 03:08:00,
2013-08-06 23:23:00,56.6,55.0,29.80,SSW,194,0.0,0.0,93,0.00,,,0.00,0,weatherlink.com 1.10,2013-08-07 03:23:00,
2013-08-06 23:38:00,56.3,54.0,29.81,SSW,194,0.0,0.0,93,0.00,,,0.00,0,weatherlink.com 1.10,2013-08-07 03:38:00,
2013-08-06 23:53:00,55.9,54.0,29.81,SSW,194,0.0,1.0,92,0.00,,,0.00,0,weatherlink.com 1.10,2013-08-07 03:53:00,